TimePST,TemperatureF,Dew PointF,Humidity,Sea Level PressureIn,VisibilityMPH,Wind Direction,Wind SpeedMPH,Gust SpeedMPH,PrecipitationIn,Events,Conditions,WindDirDegrees,DateUTC
12:09 AM,32.0,32.0,100,30.47,2.5,Calm,Calm,-,N/A,,Overcast,0,2013-03-01 08:09:00
12:16 AM,32.0,32.0,100,30.47,3.0,Calm,Calm,-,N/A,,Overcast,0,2013-03-01 08:16:00
12:26 AM,32.0,30.2,93,30.48,3.0,Calm,Calm,-,N/A,,Overcast,0,2013-03-01 08:26:00
12:34 AM,32.0,30.2,93,30.48,1.5,Calm,Calm,-,N/A,,Overcast,0,2013-03-01 08:34:00
12:53 AM,32.0,30.9,96,30.56,0.8,Calm,Calm,-,N/A,,Overcast,0,2013-03-01 08:53:00
1:03 AM,32.0,30.2,93,30.49,1.5,Calm,Calm,-,N/A,,Overcast,0,2013-03-01 09:03:00
1:11 AM,32.0,32.0,100,30.49,2.5,Calm,Calm,-,N/A,,Overcast,0,2013-03-01 09:11:00
1:50 AM,32.0,32.0,100,30.50,0.5,Calm,Calm,-,N/A,Fog,Fog,0,2013-03-01 09:50:00
1:53 AM,32.0,30.9,96,30.58,0.5,Calm,Calm,-,N/A,Fog,Fog,0,2013-03-01 09:53:00
2:40 AM,32.0,30.2,93,30.49,1.0,Calm,Calm,-,N/A,,Overcast,0,2013-03-01 10:40:00
2:53 AM,32.0,32.0,100,30.57,1.2,ESE,3.5,-,N/A,,Overcast,110,2013-03-01 10:53:00
3:12 AM,32.0,32.0,100,30.50,2.0,Calm,Calm,-,N/A,,Overcast,0,2013-03-01 11:12:00
3:53 AM,32.0,32.0,100,30.57,4.0,South,4.6,-,N/A,,Overcast,190,2013-03-01 11:53:00
4:43 AM,33.8,32.0,93,30.47,2.5,Calm,Calm,-,N/A,,Overcast,0,2013-03-01 12:43:00
4:53 AM,33.1,32.0,96,30.53,3.0,ENE,3.5,-,N/A,,Overcast,70,2013-03-01 12:53:00
5:53 AM,33.1,32.0,96,30.55,3.0,NNW,3.5,-,N/A,,Overcast,330,2013-03-01 13:53:00
6:00 AM,33.8,32.0,93,30.48,1.8,NNW,3.5,-,N/A,,Overcast,330,2013-03-01 14:00:00
6:17 AM,33.8,32.0,93,30.49,2.0,Calm,Calm,-,N/A,,Overcast,0,2013-03-01 14:17:00
6:34 AM,32.0,32.0,100,30.49,0.8,WSW,3.5,-,N/A,,Overcast,240,2013-03-01 14:34:00
6:53 AM,32.0,32.0,100,30.57,0.2,West,3.5,-,N/A,Fog,Fog,260,2013-03-01 14:53:00
7:53 AM,33.8,33.8,100,30.49,0.5,Calm,Calm,-,N/A,Fog,Fog,0,2013-03-01 15:53:00
8:25 AM,33.8,33.8,100,30.50,1.8,Calm,Calm,-,N/A,,Overcast,0,2013-03-01 16:25:00
8:32 AM,33.8,32.0,93,30.50,2.0,Calm,Calm,-,N/A,,Overcast,0,2013-03-01 16:32:00
8:53 AM,34.0,33.1,96,30.58,4.0,Calm,Calm,-,N/A,,Overcast,0,2013-03-01 16:53:00
9:32 AM,33.8,33.8,100,30.50,9.0,Calm,Calm,-,N/A,,Overcast,0,2013-03-01 17:32:00
9:53 AM,35.1,33.1,92,30.58,9.0,Calm,Calm,-,N/A,,Overcast,0,2013-03-01 17:53:00
10:53 AM,37.0,34.0,89,30.58,9.0,Calm,Calm,-,N/A,,Overcast,0,2013-03-01 18:53:00
11:53 AM,37.9,35.1,89,30.56,9.0,Calm,Calm,-,N/A,,Overcast,0,2013-03-01 19:53:00
12:33 PM,39.2,35.6,87,30.48,5.0,NE,5.8,-,N/A,,Overcast,40,2013-03-01 20:33:00
12:53 PM,39.0,37.0,93,30.53,6.0,West,4.6,-,N/A,,Overcast,260,2013-03-01 20:53:00
1:13 PM,37.4,35.6,93,30.46,8.0,NW,4.6,-,N/A,,Overcast,310,2013-03-01 21:13:00
1:33 PM,39.2,37.4,93,30.46,8.0,WNW,5.8,-,N/A,,Overcast,290,2013-03-01 21:33:00
1:40 PM,39.2,35.6,87,30.46,8.0,WNW,8.1,-,N/A,,Overcast,300,2013-03-01 21:40:00
1:53 PM,37.9,36.0,93,30.53,8.0,WNW,8.1,-,N/A,,Overcast,300,2013-03-01 21:53:00
2:53 PM,39.0,36.0,89,30.51,9.0,West,8.1,-,N/A,,Overcast,270,2013-03-01 22:53:00
3:29 PM,39.2,35.6,87,30.45,8.0,West,8.1,-,N/A,,Overcast,280,2013-03-01 23:29:00
3:45 PM,39.2,35.6,87,30.45,8.0,West,4.6,-,N/A,,Overcast,280,2013-03-01 23:45:00
3:53 PM,39.0,37.0,93,30.51,8.0,WNW,3.5,-,N/A,,Overcast,300,2013-03-01 23:53:00
4:53 PM,39.0,36.0,89,30.50,9.0,Calm,Calm,-,N/A,,Mostly Cloudy,0,2013-03-02 00:53:00
5:53 PM,37.4,35.6,93,30.43,5.0,Calm,Calm,-,N/A,,Mostly Cloudy,0,2013-03-02 01:53:00
6:00 PM,37.4,35.6,93,30.43,6.0,Calm,Calm,-,N/A,,Scattered Clouds,0,2013-03-02 02:00:00
6:13 PM,35.6,35.6,100,30.43,1.8,Calm,Calm,-,N/A,,Partly Cloudy,0,2013-03-02 02:13:00
6:23 PM,35.6,35.6,100,30.43,3.0,Calm,Calm,-,N/A,,Clear,0,2013-03-02 02:23:00
6:53 PM,34.0,33.1,96,30.51,3.0,West,4.6,-,N/A,,Clear,280,2013-03-02 02:53:00
7:02 PM,33.8,32.0,93,30.43,2.0,Calm,Calm,-,N/A,,Clear,0,2013-03-02 03:02:00
7:19 PM,32.0,30.2,93,30.42,3.0,South,4.6,-,N/A,,Clear,180,2013-03-02 03:19:00
7:37 PM,30.2,30.2,100,30.43,2.0,SSE,3.5,-,N/A,,Clear,150,2013-03-02 03:37:00
7:45 PM,30.2,28.4,93,30.43,1.0,SE,4.6,-,N/A,,Clear,130,2013-03-02 03:45:00
7:50 PM,30.2,28.4,93,30.43,0.5,SE,4.6,-,N/A,Fog,Light Freezing Fog,130,2013-03-02 03:50:00
7:53 PM,30.9,30.0,96,30.50,0.5,SE,4.6,-,N/A,Fog,Light Freezing Fog,130,2013-03-02 03:53:00
8:05 PM,28.4,28.4,100,30.43,1.0,Calm,Calm,-,N/A,,Clear,0,2013-03-02 04:05:00
8:10 PM,32.0,30.2,93,30.43,3.0,Calm,Calm,-,N/A,,Clear,0,2013-03-02 04:10:00
8:33 PM,32.0,30.2,93,30.43,2.5,Calm,Calm,-,N/A,,Partly Cloudy,0,2013-03-02 04:33:00
8:40 PM,30.2,30.2,100,30.43,1.2,Calm,Calm,-,N/A,,Mostly Cloudy,0,2013-03-02 04:40:00
8:43 PM,30.2,30.2,100,30.43,0.5,Calm,Calm,-,N/A,Fog,Light Freezing Fog,0,2013-03-02 04:43:00
8:53 PM,30.0,28.9,96,30.51,0.2,Calm,Calm,-,N/A,Fog,Light Freezing Fog,0,2013-03-02 04:53:00
9:20 PM,30.2,30.2,100,30.42,0.2,Calm,Calm,-,N/A,Fog,Light Freezing Fog,0,2013-03-02 05:20:00
9:38 PM,30.2,28.4,93,30.43,0.2,Calm,Calm,-,N/A,Fog,Light Freezing Fog,0,2013-03-02 05:38:00
9:53 PM,28.9,28.0,96,30.50,0.2,Calm,Calm,-,N/A,Fog,Light Freezing Fog,0,2013-03-02 05:53:00
10:53 PM,28.9,28.9,100,30.49,0.2,Calm,Calm,-,N/A,Fog,Light Freezing Fog,0,2013-03-02 06:53:00
11:13 PM,28.4,28.4,100,30.41,0.5,Calm,Calm,-,N/A,Fog,Light Freezing Fog,0,2013-03-02 07:13:00
11:23 PM,28.4,28.4,100,30.41,1.0,Calm,Calm,-,N/A,,Scattered Clouds,0,2013-03-02 07:23:00
11:45 PM,28.4,26.6,93,30.40,3.0,Calm,Calm,-,N/A,,Partly Cloudy,0,2013-03-02 07:45:00
11:53 PM,28.0,27.0,96,30.47,3.0,Calm,Calm,-,N/A,,Partly Cloudy,0,2013-03-02 07:53:00